Flag for USA

Past Weather in Providence, Rhode Island, USA — Yesterday and Last 2 Weeks

Now
72 °F

Fog.


Feels Like: 65 °F
Forecast: 80 / 69 °F
Wind: 3 mph from East

Location: Green State Airport

Current Time: Jul 10, 2020 at 7:01:20 am

Latest Report: Jul 10, 2020 at 6:19 am


Visibility: 0 mi

Pressure: 30.03 "Hg

Humidity: 100%

Dew Point: 72 °F

Location of ProvidenceLocation

Past Weather in Providence — Graph

°F

Providence Temperature Yesterday

Maximum temperature yesterday: 90 °F (at 2:51 pm)
Minimum temperature yesterday: 72 °F (at 3:31 am)
Average temperature yesterday: 78 °F

High & Low Weather Summary for the Past Weeks

 TemperatureHumidityPressure
High90 °F (Jul 9, 2:51 pm)100% (Jun 27, 6:13 pm)30.20 "Hg (Jun 27, 6:13 pm)
Low63 °F (Jun 27, 4:51 am)29% (Jun 25, 4:51 pm)29.67 "Hg (Jun 27, 8:51 pm)
Average72 °F82%29.92 "Hg
* Reported Jun 25 5:51 am — Jul 10 5:59 am, Providence. Weather by CustomWeather, © 2020

Note: Actual official high and low records may vary slightly from our data, if they occured in-between our weather recording intervals... More about our weather records

Providence Weather History for the Previous 24 Hours

Scroll right to see more
 ConditionsComfort  
Time TempWeatherWind HumidityBarometerVisibility
5:59 am
Fri, Jul 10
72 °FFog.3 mph100%30.03 "Hg0 mi
5:34 am72 °FFog.No wind100%30.03 "Hg0 mi
5:06 am72 °FFog.5 mph100%30.03 "Hg1 mi
4:51 am72 °FFog.No wind100%30.03 "Hg1 mi
4:01 am72 °FFog.3 mph100%30.03 "Hg1 mi
3:13 am72 °FFog.5 mph100%30.02 "Hg4 mi
2:51 am72 °FFog.7 mph100%30.02 "Hg6 mi
2:27 am73 °FFog.7 mph97%30.03 "Hg6 mi
1:51 am72 °FPartly cloudy.3 mph97%30.03 "Hg10 mi
1:44 am71 °FPassing clouds.No wind100%30.04 "Hg9 mi
1:34 am72 °FPassing clouds.No wind97%30.04 "Hg8 mi
12:51 am72 °FClear.No wind97%30.03 "Hg10 mi
11:51 pm
Thu, Jul 9
72 °FClear.6 mph93%30.02 "Hg10 mi
10:51 pm73 °FClear.5 mph94%30.02 "Hg10 mi
9:51 pm75 °FClear.3 mph88%30.02 "Hg10 mi
8:51 pm76 °FPassing clouds.6 mph82%30.01 "Hg10 mi
7:51 pm79 °FPassing clouds.10 mph74%30.00 "Hg10 mi
6:51 pm82 °FPassing clouds.14 mph70%30.00 "Hg10 mi
5:51 pm85 °FScattered clouds.13 mph61%29.99 "Hg10 mi
4:51 pm87 °FScattered clouds.16 mph59%29.98 "Hg10 mi
3:51 pm88 °FScattered clouds.18 mph61%29.99 "Hg10 mi
2:51 pm90 °FBroken clouds.14 mph59%29.98 "Hg10 mi
1:51 pm88 °FBroken clouds.10 mph63%29.99 "Hg6 mi
12:51 pm84 °FBroken clouds.13 mph72%29.99 "Hg10 mi
11:51 am85 °FPartly sunny.12 mph70%30.00 "Hg10 mi
11:25 am85 °FPartly sunny.12 mph70%30.01 "Hg10 mi
10:51 am85 °FPartly sunny.7 mph65%30.01 "Hg10 mi
9:51 am81 °FPartly sunny.7 mph74%30.01 "Hg10 mi
8:51 am79 °FOvercast.7 mph79%30.01 "Hg10 mi
7:51 am77 °FOvercast.7 mph85%30.01 "Hg10 mi
Weather by CustomWeather, © 2020

See weather overview